Temp
38 37 36 36 36 36 36 35 35 35 35 35 35 35 34 34 34 33 33 33 32 32 32 31 30 31 29 29 30 29 29 29 29 29 31 31 30 30 31 31 32 31 32
37 36 36 35 34 34 33 33 34 34 34 34 34 33 33 32 32 32 32 31 30 30 30 30 29 32 28 28 28 28 28 28 28 27 28 28 28 29 28 27 30 33 29
36 35 34 34 33 33 32 32 33 33 33 33 33 32 31 31 31 31 30 30 29 29 28 28 28 28 28 28 27 27 27 29 27 27 26 27 27 27 27 27 28 27 30
34 34 33 32 32 32 32 32 32 32 31 31 31 31 31 30 31 31 31 29 28 28 30 28 28 27 27 27 28 27 28 27 27 26 26 26 26 27 25 22 22 24 24
35 33 33 32 31 30 30 30 30 30 30 30 30 29 29 30 32 30 30 29 28 27 29 29 29 28 31 31 29 27 27 26 26 25 24 24 24 23 21 22 20 21 23
35 33 31 31 30 30 29 29 29 29 29 29 29 29 29 32 35 34 31 29 30 29 27 27 27 26 28 30 30 31 30 26 25 23 23 21 22 21 22 21 19 17 15
33 31 31 30 29 29 28 28 28 27 28 27 28 28 28 29 34 33 32 30 28 27 27 28 28 28 26 28 28 29 28 29 29 25 21 20 19 21 21 19 18 16 15
31 30 30 29 28 28 27 27 26 26 26 26 27 27 28 30 33 32 30 28 27 26 26 26 25 25 26 27 25 25 25 26 26 25 22 22 23 23 21 20 16 15 14
29 29 29 29 27 26 26 25 25 25 25 26 28 27 27 29 33 31 30 28 27 26 27 26 26 25 28 28 24 22 23 24 26 24 23 23 23 22 22 16 6 5 4
27 27 27 28 27 26 26 25 26 26 27 28 28 27 27 27 32 30 29 28 26 26 26 26 26 26 27 26 23 20 19 20 19 17 17 17 18 18 18 16 13 4 5
26 25 25 26 26 26 25 25 25 25 26 25 26 25 25 25 28 30 29 27 27 25 25 24 24 25 25 24 23 19 20 21 15 12 10 11 13 13 13 13 13 11 7
23 22 22 22 25 24 23 23 24 24 23 22 22 22 23 24 26 29 28 27 26 25 23 24 23 23 22 22 20 20 19 14 10 7 6 7 8 8 9 9 11 11 11
19 18 18 20 22 23 22 21 21 22 21 21 21 19 19 21 21 25 26 26 25 23 25 23 21 19 18 17 16 16 12 9 6 3 3 4 6 7 7 7 7 7 7
16 17 18 18 18 20 22 22 20 20 19 20 20 18 17 17 17 18 19 22 24 23 22 16 16 15 14 14 10 11 9 8 5 3 2 3 4 2 2 4 1 2 -1
16 16 17 17 17 17 18 18 19 19 22 18 18 19 16 16 18 20 19 18 19 20 12 9 7 8 6 6 6 5 4 4 2 2 0 -1 -1 0 -0 1 -1 -4 -7
14 15 15 15 15 15 15 14 24 23 26 25 24 20 19 21 23 23 24 25 26 22 5 -2 4 5 4 4 1 -0 0 -1 0 -1 -3 -4 -4 -4 -4 -4 -4 -7 -9
14 13 13 13 13 12 13 14 12 19 25 25 25 24 22 20 23 23 24 25 24 17 -3 -0 1 -1 -3 -2 -3 -4 -5 -2 -1 -3 -4 -5 -5 -6 -8 -9 -8 -8 -10
9 11 12 12 13 13 13 13 13 11 10 11 19 18 18 19 21 22 22 19 1 4 -13 -14 -13 -12 -11 -8 -7 -8 -8 -8 -8 -7 -7 -11 -15 -13 -14 -14 -12 -14 -14
11 12 12 12 14 14 12 12 12 11 9 7 4 9 6 12 15 18 19 -4 -7 -11 -14 -16 -15 -16 -14 -14 -12 -13 -13 -13 -12 -16 -19 -17 -17 -23 -20 -16 -15 -14 -14
12 13 12 10 10 10 9 8 7 7 6 4 -0 -2 -6 -7 -10 -13 -17 -20 -21 -18 -16 -16 -16 -18 -18 -17 -17 -17 -18 -19 -17 -18 -16 -17 -18 -20 -17 -19 -19 -18 -18
10 9 9 7 7 7 7 6 4 2 -1 -6 -6 -8 1 -13 -13 -17 -17 -19 -17 -16 -14 -16 -14 -17 -18 -19 -21 -21 -21 -16 -15 -17 -19 -19 -21 -25 -20 -17 -17 -22 -18
8 6 6 5 3 2 -0 -1 -4 -7 -9 -11 -13 -12 7 -13 -15 -15 -16 -16 -15 -15 -13 -15 -16 -17 -16 -18 -18 -18 -18 -16 -16 -17 -17 -18 -21 -23 -22 -21 -20 -19 -19
4 2 -1 -2 -3 -5 -8 -10 -11 -13 -13 -12 -12 -15 -22 -20 -20 -19 -17 -16 -17 -17 -18 -20 -18 -16 -16 -15 -15 -14 -14 -14 -13 -15 -18 -20 -21 -21 -23 -21 -21 -26 -22
2 0 -3 -9 -12 -13 -11 -13 -14 -12 -13 -14 -17 -19 -18 -20 -19 -18 -16 -16 -18 -17 -17 -18 -17 -16 -14 -16 -15 -15 -14 -12 -14 -16 -17 -19 -18 -19 -22 -22 -20 -20 -20
-6 -8 -8 -10 -12 -11 -12 -13 -13 -15 -16 -15 -17 -20 -20 -20 -19 -18 -16 -16 -17 -16 -15 -15 -15 -15 -16 -16 -14 -17 -16 -8 -9 -14 -19 -19 -19 -19 -18 -18 -17 -18 -19
-12 -11 -11 -12 -13 -14 -13 -13 -13 -14 -14 -17 -18 -17 -18 -18 -16 -16 -15 -17 -15 -14 -14 -13 -13 -15 -15 -14 -15 -13 -12 -7 -10 -12 -14 -17 -18 -17 -16 -16 -16 -16 -16
MSLP
1020.91 1021.21 1021.61 1021.99 1022.22 1022.42 1022.69 1023.02 1023.32 1023.64 1023.89 1024.12 1024.29 1024.58 1024.78 1024.89 1024.86 1024.94 1025.10 1025.34 1025.52 1025.72 1025.87 1025.97 1026.22 1026.33 1026.48 1026.50 1026.44 1026.32 1026.20 1026.11 1026.11 1025.67 1025.46 1025.40 1025.34 1025.40 1025.19 1025.08 1024.77 1024.36 1023.97
1020.94 1021.43 1021.86 1022.23 1022.52 1022.74 1022.97 1023.26 1023.53 1023.80 1024.02 1024.26 1024.54 1024.83 1025.03 1025.20 1025.28 1025.38 1025.63 1025.98 1026.16 1026.32 1026.40 1026.51 1026.70 1026.92 1027.12 1027.20 1027.17 1027.14 1027.07 1027.04 1026.98 1026.76 1026.31 1026.04 1026.03 1025.86 1025.83 1025.39 1024.85 1024.48 1024.17
1020.67 1021.19 1021.76 1022.26 1022.64 1022.89 1023.17 1023.47 1023.71 1023.96 1024.21 1024.43 1024.70 1025.00 1025.17 1025.32 1025.52 1025.75 1026.03 1026.38 1026.67 1026.82 1026.93 1027.11 1027.33 1027.44 1027.57 1027.65 1027.66 1027.66 1027.59 1027.45 1027.41 1027.28 1026.98 1026.66 1026.33 1025.96 1025.73 1025.60 1025.22 1024.95 1024.43
1020.31 1020.88 1021.44 1021.92 1022.38 1022.74 1023.12 1023.51 1023.93 1024.13 1024.41 1024.67 1024.86 1025.14 1025.38 1025.51 1025.61 1025.88 1026.32 1026.61 1026.83 1027.11 1027.36 1027.61 1027.77 1027.80 1027.80 1027.76 1027.75 1027.83 1027.80 1027.56 1027.31 1027.31 1027.28 1027.08 1026.84 1026.57 1026.16 1025.74 1025.18 1025.06 1024.48
1019.69 1020.27 1020.76 1021.48 1022.11 1022.63 1023.07 1023.39 1023.69 1024.09 1024.39 1024.62 1024.92 1025.22 1025.42 1025.52 1025.57 1025.80 1026.11 1026.53 1026.92 1027.37 1027.64 1027.94 1028.19 1028.28 1028.10 1028.00 1028.01 1027.89 1027.76 1027.78 1027.56 1027.41 1027.32 1027.32 1026.94 1026.61 1026.57 1026.25 1025.78 1025.14 1024.19
1019.03 1019.56 1020.24 1020.97 1021.62 1022.17 1022.69 1023.19 1023.59 1024.00 1024.37 1024.76 1025.17 1025.47 1025.67 1025.71 1025.66 1025.77 1026.11 1026.51 1027.08 1027.58 1027.89 1028.12 1028.51 1028.64 1028.57 1028.31 1028.11 1027.95 1027.89 1027.81 1028.05 1027.90 1027.66 1027.71 1027.32 1027.23 1027.23 1026.80 1026.17 1025.43 1025.07
1018.33 1018.95 1019.57 1020.32 1021.07 1021.75 1022.34 1022.86 1023.29 1023.77 1024.25 1024.70 1025.08 1025.48 1025.74 1025.81 1025.85 1026.12 1026.46 1026.82 1027.06 1027.46 1027.90 1028.07 1028.33 1028.58 1028.66 1028.49 1028.59 1028.08 1028.20 1027.98 1028.07 1028.43 1028.29 1028.41 1027.78 1027.65 1027.68 1027.09 1027.10 1027.04 1026.47
1017.58 1018.38 1019.12 1019.79 1020.43 1021.11 1021.85 1022.48 1023.12 1023.61 1024.08 1024.51 1024.97 1025.28 1025.53 1025.65 1025.95 1026.30 1026.69 1027.18 1027.50 1027.76 1028.00 1028.13 1028.34 1028.64 1028.38 1028.30 1028.58 1028.48 1028.50 1028.30 1028.16 1028.45 1028.74 1028.47 1028.00 1028.02 1027.97 1027.75 1027.94 1027.70 1027.18
1017.02 1017.55 1018.22 1018.97 1019.86 1020.65 1021.39 1021.98 1022.64 1023.24 1023.66 1024.04 1024.45 1024.81 1025.04 1025.16 1025.48 1025.98 1026.40 1027.09 1027.42 1027.63 1027.97 1028.28 1028.32 1028.50 1028.05 1028.05 1028.51 1028.63 1028.61 1028.54 1028.44 1028.75 1028.85 1028.71 1028.40 1028.26 1027.95 1028.34 1028.43 1028.00 1027.10
1016.67 1017.33 1018.03 1018.73 1019.50 1020.18 1020.78 1021.42 1021.98 1022.58 1023.13 1023.62 1024.09 1024.48 1024.92 1025.09 1025.28 1025.89 1026.18 1026.65 1026.92 1027.26 1027.60 1028.10 1028.34 1028.26 1028.18 1028.07 1028.30 1028.52 1028.46 1028.54 1028.97 1029.00 1029.14 1029.21 1029.19 1028.63 1028.58 1028.76 1028.53 1028.38 1028.12
1016.54 1017.16 1017.86 1018.28 1019.02 1019.72 1020.38 1020.95 1021.55 1022.15 1022.73 1023.32 1023.87 1024.44 1024.86 1025.33 1025.48 1025.80 1026.27 1026.64 1026.78 1027.12 1027.44 1027.71 1028.20 1028.34 1028.38 1028.26 1028.53 1028.80 1028.15 1028.28 1029.25 1029.72 1029.59 1029.47 1029.40 1029.34 1029.09 1029.11 1029.01 1028.69 1028.48
1016.64 1017.27 1017.84 1018.37 1018.92 1019.56 1020.42 1021.29 1021.89 1022.35 1022.88 1023.36 1023.77 1024.36 1024.91 1025.29 1025.64 1025.85 1026.35 1026.46 1026.89 1026.91 1027.25 1027.58 1028.16 1028.49 1028.64 1028.59 1028.87 1028.75 1028.73 1029.33 1029.76 1030.13 1029.98 1030.05 1029.87 1029.75 1029.62 1029.51 1029.31 1029.05 1028.99
1017.09 1017.53 1018.18 1018.75 1019.05 1019.69 1020.16 1020.80 1021.51 1022.20 1022.66 1023.20 1023.68 1024.27 1025.03 1025.51 1025.92 1026.16 1026.33 1026.62 1027.11 1027.19 1027.24 1027.52 1028.21 1028.56 1028.81 1029.09 1029.23 1029.29 1029.58 1029.63 1030.14 1030.45 1030.34 1030.45 1030.46 1030.29 1030.04 1029.77 1029.51 1029.40 1029.16
1017.01 1017.65 1018.17 1018.66 1019.27 1019.72 1020.13 1020.54 1021.30 1021.74 1022.18 1022.71 1023.54 1024.38 1024.92 1025.47 1026.01 1026.50 1026.75 1026.75 1026.83 1027.24 1027.38 1028.49 1028.54 1028.79 1029.07 1029.14 1029.55 1029.79 1029.89 1029.94 1030.48 1030.69 1030.44 1030.48 1030.56 1030.39 1030.19 1029.99 1029.76 1029.56 1029.28
1017.03 1017.74 1018.28 1018.96 1019.48 1019.92 1020.54 1020.60 1021.05 1021.26 1021.65 1022.27 1022.88 1023.64 1024.37 1024.96 1025.40 1026.05 1026.45 1026.69 1026.98 1027.10 1028.24 1028.78 1029.18 1029.45 1029.64 1029.69 1029.73 1030.08 1030.17 1030.31 1030.64 1030.55 1030.38 1030.54 1030.48 1030.42 1030.24 1030.00 1029.98 1029.89 1029.66
1017.01 1017.62 1018.19 1018.91 1019.45 1020.09 1020.50 1021.29 1021.28 1021.61 1021.74 1022.37 1022.85 1023.43 1024.14 1024.65 1025.03 1025.38 1025.59 1025.64 1025.69 1026.35 1028.24 1029.12 1029.53 1029.93 1029.96 1029.84 1029.96 1030.10 1030.22 1030.36 1030.35 1030.31 1030.37 1030.54 1030.56 1030.50 1030.41 1030.28 1030.14 1029.85 1029.38
1016.94 1017.45 1018.48 1018.65 1018.73 1020.14 1021.10 1021.49 1021.41 1021.79 1022.13 1022.45 1022.72 1023.14 1023.95 1024.57 1024.67 1025.04 1025.10 1025.27 1025.39 1026.37 1028.26 1029.09 1029.68 1029.97 1029.90 1029.86 1029.99 1030.20 1030.15 1029.93 1029.91 1030.09 1030.29 1030.38 1030.46 1030.56 1030.66 1030.32 1029.87 1029.58 1029.16
1016.92 1017.26 1018.00 1018.93 1019.28 1019.92 1020.87 1021.43 1021.63 1021.91 1022.50 1023.19 1023.27 1023.56 1024.11 1024.55 1024.66 1024.72 1024.89 1025.15 1026.28 1026.96 1028.49 1029.39 1029.78 1029.93 1029.95 1029.93 1029.93 1029.97 1029.80 1029.67 1029.75 1029.92 1030.03 1030.17 1030.44 1030.65 1030.47 1030.06 1029.78 1029.51 1029.07
1017.13 1017.45 1017.93 1018.75 1019.64 1020.13 1020.79 1021.47 1021.98 1022.62 1023.28 1024.03 1024.73 1024.96 1025.84 1025.37 1025.16 1025.14 1025.16 1026.09 1027.40 1028.12 1028.76 1029.33 1029.33 1029.52 1029.64 1029.62 1029.54 1029.53 1029.55 1029.49 1029.42 1029.55 1029.66 1029.99 1030.14 1030.27 1029.99 1029.67 1029.48 1029.19 1028.77
1016.88 1017.63 1018.30 1019.25 1020.00 1020.49 1020.95 1021.55 1022.29 1023.06 1023.76 1024.43 1025.21 1025.77 1026.45 1026.73 1026.68 1026.76 1026.59 1027.05 1027.79 1028.20 1028.43 1028.80 1028.70 1028.85 1028.90 1028.95 1028.94 1028.94 1029.02 1029.08 1029.08 1029.06 1029.19 1029.32 1029.29 1029.32 1029.27 1029.17 1028.97 1028.77 1028.19
1017.39 1018.22 1018.65 1019.62 1020.43 1020.92 1021.43 1021.98 1022.63 1023.51 1024.32 1024.94 1025.62 1025.95 1026.30 1026.92 1027.16 1027.43 1027.38 1027.48 1027.75 1027.82 1027.77 1027.99 1028.05 1028.09 1028.07 1028.07 1028.13 1028.21 1028.34 1028.26 1028.06 1028.05 1028.22 1028.30 1028.32 1028.66 1028.44 1028.33 1028.15 1028.05 1027.58
1017.72 1018.45 1019.41 1020.17 1020.67 1021.27 1022.03 1022.58 1023.23 1023.93 1024.62 1025.33 1026.07 1026.17 1025.90 1026.44 1026.79 1027.07 1027.10 1027.09 1027.10 1027.05 1026.90 1027.15 1027.25 1027.10 1026.95 1026.89 1027.02 1027.09 1027.19 1027.10 1026.87 1026.84 1027.04 1027.15 1027.26 1027.40 1027.56 1027.58 1027.44 1027.16 1026.78
1018.38 1019.05 1019.96 1020.64 1021.25 1021.94 1022.62 1023.04 1023.56 1024.26 1024.80 1025.33 1025.87 1026.25 1026.45 1026.52 1026.54 1026.57 1026.54 1026.34 1026.38 1026.26 1026.15 1026.45 1026.32 1025.92 1025.63 1025.55 1025.60 1025.66 1025.72 1025.39 1025.19 1025.41 1025.76 1026.01 1026.24 1026.42 1026.52 1026.51 1026.32 1026.12 1025.83
1018.70 1019.34 1020.00 1020.64 1021.36 1022.11 1022.72 1023.17 1023.64 1024.24 1024.75 1025.21 1025.62 1025.87 1026.01 1026.04 1025.92 1025.73 1025.49 1025.27 1025.28 1025.12 1025.01 1025.06 1024.98 1024.71 1024.35 1024.33 1024.28 1024.27 1024.22 1024.00 1024.04 1024.23 1024.57 1024.81 1025.02 1025.04 1025.12 1025.16 1025.00 1024.81 1024.62
1019.10 1019.73 1020.19 1020.69 1021.36 1021.87 1022.45 1022.90 1023.41 1023.92 1024.38 1024.87 1025.14 1025.38 1025.17 1025.07 1024.93 1024.67 1024.43 1024.32 1024.27 1024.11 1023.70 1023.60 1023.52 1023.25 1023.18 1023.03 1022.90 1022.88 1022.78 1022.61 1022.69 1022.96 1023.38 1023.70 1023.73 1023.70 1023.74 1023.77 1023.60 1023.45 1023.29
1019.35 1019.90 1020.38 1020.86 1021.33 1021.85 1022.31 1022.73 1022.97 1023.34 1023.74 1024.07 1024.21 1024.10 1024.09 1024.05 1023.83 1023.59 1023.36 1023.25 1023.11 1022.79 1022.52 1022.26 1022.06 1021.99 1021.84 1021.68 1021.58 1021.56 1021.50 1021.36 1021.47 1021.60 1021.90 1022.33 1022.40 1022.32 1022.29 1022.27 1022.14 1022.01 1021.71
Wind_Speed
6 6 6 5 5 5 5 5 5 4 4 4 4 4 3 3 4 4 5 5 6 5 5 6 6 5 4 4 4 4 4 4 2 3 2 4 5 7 8 8 8 7 8
6 5 5 5 5 5 5 4 4 5 3 4 4 4 4 4 4 4 5 5 5 5 5 6 5 5 5 5 4 5 4 3 2 2 2 3 2 5 6 7 7 7 8
7 6 6 6 5 5 5 4 4 5 5 5 5 4 4 4 5 5 5 5 5 5 5 5 5 5 5 3 4 3 2 2 2 2 3 2 2 2 8 6 7 7 8
7 7 7 7 6 6 5 5 5 4 5 5 5 5 4 5 5 5 5 5 5 5 5 5 5 5 4 4 4 3 4 3 2 2 3 3 3 6 4 7 8 6 9
9 9 8 6 6 6 6 5 6 5 5 5 6 5 5 5 4 5 6 6 6 5 5 6 6 6 9 7 4 3 3 3 3 3 2 3 4 6 8 7 7 8 7
11 10 8 8 8 7 6 6 6 5 5 5 5 5 4 3 8 9 7 6 5 5 4 5 4 5 5 8 8 7 5 4 5 4 3 6 7 7 7 8 7 8 6
10 9 10 10 9 8 7 7 7 7 6 5 6 6 5 4 8 8 8 5 5 5 4 3 3 3 3 4 6 5 5 6 7 5 6 7 8 8 9 10 10 8 7
10 9 9 10 10 9 8 8 6 5 6 6 6 6 5 5 9 8 8 5 5 5 4 4 4 2 3 3 4 4 4 3 5 5 6 6 6 7 7 8 9 9 9
10 11 11 11 11 10 10 9 6 6 6 7 8 8 7 6 12 10 8 5 5 5 4 4 3 1 3 7 4 4 4 3 6 9 9 10 10 9 10 5 4 6 3
8 8 9 10 11 11 11 11 8 8 8 7 8 7 7 6 12 10 7 5 5 4 4 5 4 1 3 5 3 2 4 6 7 6 7 8 8 7 10 7 6 4 4
7 8 9 10 10 10 10 7 9 9 8 7 7 7 6 5 6 10 8 4 3 4 3 3 2 3 4 5 5 2 3 5 6 5 5 5 6 6 5 6 7 6 4
7 7 7 7 7 8 10 7 8 8 8 7 8 6 5 5 6 9 8 6 4 3 4 3 2 1 4 4 2 5 6 5 3 3 4 4 5 6 6 6 8 7 7
7 7 7 7 7 8 10 9 8 8 8 8 8 7 6 4 2 8 9 8 4 2 3 4 4 2 3 2 3 5 3 2 2 2 3 3 4 5 8 6 6 8 8
9 8 8 9 7 7 6 7 7 7 7 7 7 6 5 5 4 3 4 4 6 4 5 3 3 3 2 2 1 2 2 1 2 3 3 3 4 4 5 5 5 6 6
8 8 8 6 7 6 4 6 6 4 8 7 6 6 7 6 6 8 7 4 4 5 5 2 1 0 1 2 2 2 2 2 3 3 2 3 4 5 5 5 5 4 5
9 7 7 7 6 5 6 4 9 9 11 11 12 7 3 5 9 10 12 12 11 10 3 2 2 3 4 3 3 3 3 4 4 3 2 3 4 4 5 5 5 4 6
8 8 6 7 7 7 6 7 7 6 9 10 11 11 10 6 8 8 10 11 8 8 3 2 3 3 3 3 3 4 4 3 2 3 4 3 3 4 5 5 5 5 6
6 9 7 6 6 7 7 6 5 6 6 3 2 5 4 6 8 9 9 4 1 2 2 4 4 4 3 4 4 4 4 3 3 4 4 3 3 4 5 5 5 5 6
7 6 6 6 5 6 5 5 5 5 4 3 2 2 3 2 5 8 11 3 4 3 3 3 4 4 4 4 5 4 4 4 3 3 3 4 5 4 5 5 5 8 9
6 9 7 5 5 6 5 5 4 4 4 4 3 3 1 2 0 1 1 1 2 3 3 4 4 4 5 5 5 4 4 4 5 4 6 5 5 4 5 5 5 6 6
5 5 8 5 4 4 4 4 4 3 3 3 3 3 7 4 4 4 3 3 4 4 4 5 5 5 5 5 5 5 5 6 5 6 5 5 4 4 5 6 6 5 7
5 5 4 4 3 4 3 3 4 4 4 3 3 2 10 2 3 3 4 5 5 6 5 5 5 6 6 6 5 6 6 8 7 6 6 5 5 5 5 5 6 6 7
5 6 5 4 4 5 3 3 3 3 3 3 3 3 2 3 3 5 5 5 5 5 5 5 6 6 5 6 6 7 8 9 8 5 5 5 5 6 5 7 6 5 6
5 6 6 5 4 4 4 4 3 4 4 3 3 4 4 5 6 7 6 6 5 6 5 5 6 9 7 7 6 7 8 8 5 6 8 6 7 6 5 6 6 8 8
5 5 5 5 5 5 4 4 4 4 4 4 5 4 5 5 5 6 6 5 5 6 7 6 6 9 11 12 11 9 9 14 10 9 6 8 8 9 7 7 8 8 9
4 4 3 3 4 3 4 4 4 4 5 5 5 5 5 5 6 6 6 6 6 7 8 6 7 11 11 9 10 12 13 15 12 13 9 8 9 9 8 10 12 9 10
Wind_Direction
176 170 160 164 157 145 142 144 143 132 130 130 123 106 84 78 74 87 81 79 84 84 74 76 69 55 50 37 31 32 33 27 21 314 333 351 350 0 357 353 351 346 342
174 168 178 165 160 153 151 150 140 137 126 134 120 110 99 84 75 88 87 92 98 91 82 76 69 72 56 45 39 41 31 31 359 295 317 336 325 348 344 336 343 343 333
176 175 175 179 172 166 157 154 150 142 135 128 127 127 119 108 99 87 95 89 79 77 73 69 64 62 54 44 46 32 20 3 344 308 315 337 297 358 340 339 339 331 327
175 181 186 178 177 171 156 148 146 146 144 143 136 129 124 115 109 103 105 99 89 76 78 70 61 59 51 40 47 19 3 343 314 299 299 309 317 339 320 334 338 343 320
187 190 192 165 162 155 156 157 151 155 158 149 139 135 133 135 132 123 119 111 104 92 85 86 64 48 44 33 21 8 356 342 334 335 322 320 334 349 351 337 327 326 314
193 198 167 165 161 166 161 161 154 149 148 145 142 137 131 117 138 132 121 115 113 114 113 111 100 62 22 17 10 9 15 10 356 343 347 342 347 347 339 339 338 353 349
192 180 176 168 168 168 161 157 158 158 146 152 149 147 137 124 136 125 127 119 118 112 104 106 120 65 351 18 356 360 28 10 26 6 352 350 340 347 340 341 346 340 316
189 181 171 171 171 163 159 161 149 149 156 153 152 146 140 148 142 138 131 117 115 109 115 117 117 94 322 31 3 345 1 0 25 23 355 338 339 351 345 354 342 323 298
186 185 178 173 166 161 165 163 156 151 158 160 162 159 157 156 160 157 154 152 149 138 139 132 124 136 2 5 2 341 331 348 5 4 355 349 355 356 7 5 338 356 312
180 172 164 165 166 172 170 166 165 165 165 166 163 161 155 154 171 163 158 167 172 168 168 163 179 230 4 13 17 353 345 346 346 354 352 352 355 6 15 14 355 348 339
145 148 163 168 170 167 160 160 158 162 158 159 159 153 142 141 179 172 173 176 195 181 206 175 199 264 351 5 22 321 330 3 346 348 344 344 350 359 6 0 353 342 331
142 147 149 148 152 149 149 148 155 158 157 156 148 144 150 145 173 193 185 183 192 209 207 185 189 293 355 348 6 327 349 13 3 344 350 333 337 339 341 338 331 330 316
131 134 138 138 141 150 153 154 154 160 164 165 168 162 159 153 147 198 196 204 189 224 240 172 134 64 23 15 337 331 23 15 343 319 308 307 319 319 316 317 317 315 305
145 145 144 145 144 147 150 155 160 167 167 167 172 176 167 155 172 183 199 228 219 227 169 118 117 93 52 338 349 343 341 333 303 285 285 304 312 311 307 316 316 320 310
145 151 152 146 153 141 142 161 167 164 175 170 172 167 166 183 194 196 195 190 208 204 121 107 136 152 254 260 259 263 287 279 265 266 274 289 303 304 301 317 310 306 279
150 155 156 153 146 143 140 145 171 168 178 184 180 164 153 178 198 207 213 230 231 165 105 151 183 218 237 234 236 259 256 243 241 241 232 255 268 287 292 292 286 274 287
157 147 156 156 139 147 152 160 147 160 172 182 175 178 179 195 214 221 232 240 232 161 140 183 196 210 222 220 219 218 243 228 219 236 254 250 256 257 278 278 286 293 289
130 146 152 150 154 153 163 164 155 159 155 132 206 127 164 212 224 236 237 255 37 116 151 185 214 215 220 228 227 224 236 247 223 238 241 224 227 243 261 266 274 275 279
143 145 139 143 158 150 140 136 138 140 147 139 108 143 27 276 261 251 251 139 186 202 201 218 209 215 224 223 231 227 224 235 225 208 228 227 234 205 248 253 260 264 275
123 139 130 135 142 139 140 143 144 160 162 162 175 182 155 77 37 264 299 147 190 228 216 225 225 221 225 222 227 224 232 235 242 227 240 231 226 209 243 241 244 259 261
130 129 133 121 141 143 145 151 143 145 160 163 183 185 195 178 215 214 231 231 226 237 233 221 238 233 226 222 219 218 220 244 237 231 221 230 211 223 227 238 246 236 259
136 133 130 142 132 138 149 145 147 158 171 172 200 241 247 117 201 229 233 236 233 234 235 225 235 229 223 213 209 215 226 237 236 224 224 221 216 224 222 233 238 245 252
127 132 143 150 148 138 130 137 150 161 180 199 208 220 222 246 244 245 247 247 234 239 230 216 233 248 231 226 215 219 224 234 232 207 207 214 219 228 208 234 232 229 246
150 157 156 142 140 151 161 171 172 189 206 217 222 231 232 229 237 242 245 248 241 246 234 225 226 235 246 233 226 222 228 237 222 214 205 210 229 231 212 220 232 236 250
151 152 156 162 169 172 165 176 189 195 204 219 231 227 232 237 244 243 244 237 240 242 251 233 232 237 236 238 240 227 228 244 235 212 201 210 222 226 233 233 245 244 244
138 142 147 144 158 172 185 192 204 202 218 223 227 232 236 240 244 247 247 237 243 245 247 246 242 237 243 247 242 242 243 247 241 233 213 210 218 229 230 232 240 240 246